STARLINK-1731

decayed
NORAD ID: 46676 Int'l Des: 2020-073 Owner: SPXS Country: US Constellation: starlink
LEOCIRCULAR
Group

About STARLINK-1731

Description loading...

Altitude History

Altitude vs Time

uPlot chart will show altitude changes over time

Two-Line Element Set

1 46676U 20073G 21317.39922053 .57051952 12584-4 14820-2 0 9993
2 46676 53.0304 37.0674 0004719 359.0534 52.3573 16.45624965 61070
Epoch: Nov 13, 2021 • Age: 33498 hours

Current Status

Position data unavailable
Launch Date Oct 18, 2020
Age 4.8 years
Decay Date Nov 13, 2021
Type internet

Technical Details

Classification Payload
Mass 260.00 kg
Dry Mass 248.00 kg
Total Mass 260.00 kg
Length 0.20 m
Diameter 2.80 m
Span 9.00 m
Shape Box + pan
Manufacturer SPXS
Bus Type Starlink
Phase Status Unknown Transfer Status
Owner/State SPXS/US

Large Constellations

Loading constellations...